Location: Bennemühlen
(52.5740°N, 9.7135°E)
Time: 16:31:04
(UTC+00:00)

Tiros 1 despin weight - Pass Details

Date: 20 February 2026
Orbit: 556 x 593 km, 48.2° (Epoch: 11 March)

Event Time Altitude Azimuth Distance (km) Brightness Sun altitude
Rises 18:53:22 0° 274° (W) 2,735 ? -20.4°
Reaches altitude 10° 18:56:09 10° 255° (WSW) 1,838 ? -20.8°
Maximum altitude 18:59:02 18° 212° (SSW) 1,391 ? -21.2°
Enters shadow 19:00:49 14° 181° (S) 1,577 ? -21.5°
Drops below altitude 10° 19:01:55 10° 168° (SSE) 1,837 - -21.7°
Sets 19:04:42 0° 150° (SSE) 2,734 - -22.1°
